SZ-17 MODULE

Last updated on Thu Nov 21 2024 00:02:09 GMT+0000 (Coordinated Universal Time)

1 59624U 23164C 24325.07358824 .00240615 30325-4 50691-3 0 9994 2 59624 41.4665 192.2110 0014735 278.8401 81.0783 15.97852191 32145
UTC large
Height (km)
Speed (km/s)
/
Latitude / Longitude
Inclination (degrees)
Orbital Period (minutes)
Azimuth
Elevation
Range (km)
Doppler Factor

Next 0 passes for location: London (51.5072 / 0.1276)

Sorry there are no passes over London.